Ana Sayfa
METAR-TAF:

METAR-TAF

Havaalanları :

Municipal_Airport

Cushing, Oklahoma, Amerika Birleşik Devletleri

Enlem: 35-56-59N, Boylam: 096-46-22W, yükseklik: 279 m

Güncel hava durumu gözlemi

Rapor saat 15:15 UTC de 45 dakika önce yapıldı.
Rüzgar güney/güneybatıdan 6 kt
Sıcaklık 25°C
Nem 61%
Basınç 1011 hPa
Görüş mesafesi: 16.1 km
Açık gökyüzü

METAR: KCUH 181515Z AUTO 21006KT 10SM CLR 25/17 A2985 RMK AO2 T02460166

Saat: 11:00 (16:00 UTC)


TAF: eksik

4.000'den fazla havaalanı için hava durumu gözlemleri ve tahminleri (METAR ve TAF raporları).

Kullanılabilir istasyonlar harita üzerinde sarı ve kırmızı noktalarla gösterilir.

İstasyonun adını görmek için fareyi noktanın üzerinde gezdirin.

Sonrasında hava gözlem ve tahminlerini görmek için tıklayın.

Haritayı değiştirmek için: yaklaştırmak için siyah artı işaretli yeşil düğmeye ve uzaklaştırmak için de eksi işaretli düğmeye hızla tıklayın; bitişik haritalar için yeşil okları kullanın.


METAR-TAF: